Weather in San Tome

Venezuela     8°55′44″N   64°07′36″W
temp.,
°C
wind,
m/s
gust,
m/s
humid.,
%
clouds,
%
prec.,
mm/h
press.,
hPa
HPBL,
m
17 april, sat
sat1723:00+26ene6116637 0.0 1013778
02:00+24ene612735 0.0 1012699
05:00+23ene612775 0.0 1013771
08:00+25e7117045 0.0 1015946
11:00+30e794220 0.0 10151782
14:00+33e79349 0.0 10112390
17:00+32e7935100 0.0 10101922
20:00+28ene7105491 0.0 1012998
18 april, sun
sun1823:00+26ene7116526 0.0 1014981
02:00+24ene612745 0.0 1013818
05:00+23e512805 0.0 1013829
08:00+25e7117190 0.0 1015985
11:00+30e794481 0.1 10151911
14:00+34e7929100 0.1 10112446
17:00+33e7830100 0.0 10102545
20:00+28ene6949100 0.0 10121282
19 april, mon
mon1923:00+25ene61266100 0.0 1015841
02:00+23ene61274100 0.0 1014827
05:00+22ene5118095 0.0 1015819
08:00+24ene6117291 0.0 1016928
11:00+30e7104629 0.0 10161882
14:00+33e793185 0.0 10122756
17:00+31ene884098 0.0 10111685
20:00+27ene6105566 0.0 10131006
20 april, tue
tue2023:00+25ene71265100 0.0 1015824
02:00+23ene61175100 0.0 1014793
05:00+22ene6118511 0.0 1014785
08:00+24ene7107035 0.0 1016875
11:00+28e68529 0.0 10161380
14:00+33ene563484 0.0 10122415
17:00+32ene663447 0.0 10102247
20:00+29ene683995 0.0 1012921
21 april, wed
wed2123:00+25ene7126042 0.0 1014752
02:00+23ene6127316 0.0 1013746
05:00+22e6128657 0.0 1014753
08:00+24e710701 0.0 1016869
11:00+30e67440 0.0 10151544
14:00+34e44310 0.0 10112679
17:00+34ene43263 0.0 10092879
20:00+28ene6115118 0.0 1011625